Location: Bittelbronn
(48.4454°N, 8.5870°E)
Time: 16:54:10
(UTC+00:00)

NOAA 16 DEB - Visible Passes

Search period start: 07 October 2024 00:00
Search period end: 17 October 2024 00:00
Orbit: 837 x 897 km, 98.6° (Epoch: 05 October)

Date Brightness Start Highest point End Pass type
(mag) Time Alt. Az. Time Alt. Az. Time Alt. Az.
07 Oct ? 04:26:42 10° NE 04:30:31 19° E 04:34:17 10° SE visible
07 Oct ? 17:40:15 10° SSW 17:45:05 29° W 17:49:54 10° NW visible
08 Oct ? 04:19:58 10° NE 04:23:24 17° E 04:26:47 10° SE visible
08 Oct ? 17:33:00 10° SSW 17:38:01 32° W 17:43:00 10° NNW visible
09 Oct ? 04:13:20 10° NE 04:16:15 15° E 04:19:10 10° ESE visible
09 Oct ? 17:25:46 10° SSW 17:30:56 37° W 17:36:03 10° NNW visible
10 Oct ? 04:06:49 10° ENE 04:09:06 13° E 04:11:23 10° ESE visible
10 Oct ? 17:18:33 10° SSW 17:23:50 41° W 17:29:05 10° NNW visible
11 Oct ? 04:00:38 10° ENE 04:01:56 11° E 04:03:14 10° E visible
11 Oct ? 17:11:22 10° S 17:16:44 47° W 17:22:06 10° NNW visible
12 Oct ? 17:04:11 10° S 17:09:39 53° W 17:15:05 10° NNW visible
14 Oct ? 18:36:35 10° W 18:37:30 10° W 18:38:26 10° WNW visible
15 Oct ? 05:10:23 10° NNE 05:15:34 43° E 05:20:43 10° S visible
15 Oct ? 18:28:09 10° WSW 18:30:17 12° W 18:32:25 10° WNW visible
16 Oct ? 05:03:21 10° NNE 05:08:25 38° E 05:13:27 10° SSE visible
16 Oct ? 18:20:15 10° WSW 18:23:04 14° W 18:25:54 10° NW visible
